KB7STN Weather Reports


time (UTC)temp
C
wind
direction
speed
KPH
gust
KPH
rain 1hr
cm
rain 24hr
cm
rain mn
cm
humidity
%
barometer
mb
20260506103215 3 324 4.8 14.5 0.03 0.23 0.23 86 1008.6
20260506102715 3 325 4.8 9.7 0.03 0.23 0.23 86 1008.4
20260506102215 3 325 4.8 11.3 0.03 0.23 0.23 87 1008.3
20260506101715 4 323 4.8 14.5 0.03 0.23 0.23 87 1008.1
20260506101215 4 322 4.8 12.9 0.03 0.23 0.23 87 1008.0
20260506100715 4 321 4.8 12.9 0.05 0.23 0.23 87 1008.0
20260506100215 4 323 4.8 11.3 0.05 0.23 0.23 88 1007.8
20260506095715 5 324 4.8 16.1 0.08 0.23 0.23 88 1007.8
20260506095215 5 327 4.8 12.9 0.05 0.20 0.20 88 1007.6
20260506094715 5 328 4.8 12.9 0.10 0.20 0.20 88 1007.5
20260506094215 5 331 4.8 12.9 0.18 0.20 0.20 88 1007.2
20260506093715 5 5 3.2 12.9 0.20 0.20 0.20 88 1007.2
20260506093215 5 19 3.2 8.0 0.20 0.20 0.20 87 1007.2
20260506092715 5 19 3.2 11.3 0.20 0.20 0.20 87 1007.2
20260506092215 5 26 3.2 8.0 0.20 0.20 0.20 86 1007.2
20260506091715 5 28 1.6 8.0 0.20 0.20 0.20 86 1007.1
20260506091215 5 28 1.6 8.0 0.20 0.20 0.20 85 1007.1
20260506090715 5 30 1.6 8.0 0.18 0.18 0.18 84 1007.0
20260506090215 5 33 3.2 9.7 0.18 0.18 0.18 82 1006.8
20260506085715 6 38 6.4 14.5 0.15 0.15 0.15 80 1006.8
20260506085215 6 59 8.0 17.7 0.15 0.15 0.15 75 1006.7
20260506084715 7 70 4.8 17.7 0.10 0.10 0.10 73 1006.5
20260506084215 8 277 3.2 8.0 0.03 0.03 0.03 76 1005.9
20260506083715 8 276 1.6 9.7 0.00 0.00 0.00 75 1004.8
20260506083215 8 276 0.0 3.2 0.00 0.00 0.00 74 1004.5
20260506082715 8 275 0.0 0.0 0.00 0.00 0.00 73 1004.0
20260506082215 8 276 0.0 0.0 0.00 0.00 0.00 72 1003.9
20260506081715 8 275 0.0 0.0 0.00 0.00 0.00 70 1004.1
20260506081215 9 275 0.0 0.0 0.00 0.00 0.00 69 1004.0
20260506080715 9 275 0.0 0.0 0.00 0.00 0.00 68 1004.0
20260506080215 9 276 0.0 0.0 0.00 0.00 0.00 66 1004.1
20260506073215 9 275 1.6 4.8 0.00 0.00 0.00 67 1004.3
20260506072716 9 275 3.2 4.8 0.00 0.00 0.00 69 1004.3
20260506072216 9 276 4.8 12.9 0.00 0.00 0.00 69 1004.3
20260506071716 8 276 6.4 14.5 0.00 0.00 0.00 70 1004.2
20260506071216 8 277 6.4 17.7 0.00 0.00 0.00 71 1004.1
20260506070716 8 275 4.8 14.5 0.00 0.00 0.00 73 1004.2
20260506070216 9 275 4.8 11.3 0.00 0.00 0.00 73 1004.1
20260506062216 10 273 6.4 25.7 0.00 0.00 0.00 63 1003.7
20260506061716 10 281 4.8 14.5 0.00 0.00 0.00 62 1003.7
20260506061216 10 289 3.2 9.7 0.00 0.00 0.00 62 1003.7
20260506060716 10 292 1.6 8.0 0.00 0.00 0.00 62 1003.6
20260506060216 10 292 0.0 8.0 0.00 0.00 0.00 62 1003.6
20260506051216 9 169 0.0 0.0 0.00 0.00 0.00 65 1002.9
20260506050716 8 169 0.0 0.0 0.00 0.00 0.00 65 1002.8
20260506050216 8 169 0.0 0.0 0.00 0.00 0.00 65 1002.6
20260506044716 8 169 0.0 0.0 0.00 0.00 0.00 66 1002.5
20260506044216 8 169 0.0 0.0 0.00 0.00 0.00 66 1002.4
20260506043716 8 169 0.0 0.0 0.00 0.00 0.00 66 1002.4
20260506043216 8 169 0.0 0.0 0.00 0.00 0.00 66 1002.5
20260506042716 8 169 0.0 0.0 0.00 0.00 0.00 66 1002.5
20260506042216 8 169 0.0 0.0 0.00 0.00 0.00 66 1002.4
20260506041716 8 169 0.0 0.0 0.00 0.00 0.00 65 1002.4
20260506041216 8 169 0.0 0.0 0.00 0.00 0.00 65 1002.3
20260506040716 8 169 0.0 0.0 0.00 0.00 0.00 65 1002.3
20260506040216 8 169 0.0 0.0 0.00 0.00 0.00 64 1002.3
20260506035716 8 169 0.0 0.0 0.00 0.00 0.00 64 1002.3
20260506035216 9 169 0.0 0.0 0.00 0.00 0.00 64 1002.3
20260506034716 9 169 0.0 0.0 0.00 0.00 0.00 63 1002.3
20260506034216 9 169 0.0 0.0 0.00 0.00 0.00 63 1002.3
20260506033716 9 169 0.0 0.0 0.00 0.00 0.00 64 1002.2
20260506033216 9 169 0.0 0.0 0.00 0.00 0.00 63 1002.0
20260506032716 9 169 0.0 0.0 0.00 0.00 0.00 63 1002.0
20260506032216 9 169 0.0 0.0 0.00 0.00 0.00 62 1002.0
20260506031716 10 169 0.0 0.0 0.00 0.00 0.00 62 1001.8
20260506031216 10 169 0.0 0.0 0.00 0.00 0.00 61 1001.8
20260506030716 10 169 0.0 0.0 0.00 0.00 0.00 61 1001.8
20260506030216 10 169 0.0 0.0 0.00 0.00 0.00 60 1001.7
20260506025716 10 169 0.0 0.0 0.00 0.00 0.00 59 1001.6
20260506025216 10 169 0.0 0.0 0.00 0.00 0.00 59 1001.6
20260506024716 11 169 0.0 0.0 0.00 0.00 0.00 59 1001.5
20260506024216 11 169 0.0 0.0 0.00 0.00 0.00 58 1001.4
20260506023716 11 169 0.0 0.0 0.00 0.00 0.00 57 1001.4
20260506023216 11 169 0.0 0.0 0.00 0.00 0.00 57 1001.3
20260506022716 11 169 0.0 0.0 0.00 0.00 0.00 56 1001.3
20260506022216 11 169 0.0 0.0 0.00 0.00 0.00 55 1001.1
20260506021716 11 169 0.0 0.0 0.00 0.00 0.00 55 1001.1
20260506021216 11 169 1.6 6.4 0.00 0.00 0.00 54 1001.1
20260506020716 11 168 1.6 3.2 0.00 0.00 0.00 54 1001.1
20260506020216 12 167 1.6 6.4 0.00 0.00 0.00 54 1001.0
20260506015716 12 167 1.6 4.8 0.00 0.00 0.00 54 1001.1
20260506015216 12 166 1.6 6.4 0.00 0.00 0.00 54 1001.0
20260506014716 12 165 1.6 4.8 0.00 0.00 0.00 53 1001.1
20260506014216 12 165 1.6 4.8 0.00 0.00 0.00 53 1001.0
20260506013716 12 165 1.6 4.8 0.00 0.00 0.00 52 1001.0
20260506013216 13 165 1.6 6.4 0.00 0.00 0.00 51 1001.0
20260506012716 13 165 0.0 4.8 0.00 0.00 0.00 51 1000.9
20260506012216 13 165 0.0 0.0 0.00 0.00 0.00 51 1000.8
20260506011716 13 165 1.6 3.2 0.00 0.00 0.00 51 1000.9
20260506011216 13 165 3.2 6.4 0.00 0.00 0.00 51 1000.8
20260506010716 13 165 3.2 9.7 0.00 0.00 0.00 50 1000.9
20260506010216 13 182 3.2 6.4 0.00 0.00 0.00 51 1000.9
20260506005716 13 181 3.2 6.4 0.00 0.00 0.00 50 1000.8
20260506005216 13 181 3.2 8.0 0.00 0.00 0.00 51 1000.8
20260506004716 13 163 3.2 8.0 0.00 0.00 0.00 51 1000.8
20260506004216 13 164 3.2 9.7 0.00 0.00 0.00 51 1000.8
20260506003716 13 184 3.2 8.0 0.00 0.00 0.00 51 1000.8
20260506003216 13 194 3.2 6.4 0.00 0.00 0.00 51 1000.7
20260506002716 13 188 3.2 6.4 0.00 0.00 0.00 51 1000.7
20260506002216 13 188 3.2 9.7 0.00 0.00 0.00 51 1000.8
20260506001716 13 154 3.2 9.7 0.00 0.00 0.00 51 1000.8
20260506001216 13 159 1.6 9.7 0.00 0.00 0.00 52 1000.8
20260506000716 13 164 1.6 4.8 0.00 0.00 0.00 52 1000.7
20260506000219 13 164 3.2 6.4 0.00 0.00 0.00 52 1000.8
20260505235716 13 164 1.6 8.0 0.00 0.00 0.00 52 1000.9
20260505235216 13 161 1.6 3.2 0.00 0.00 0.00 53 1000.8
20260505234716 13 161 1.6 6.4 0.00 0.00 0.00 53 1000.8
20260505234216 13 160 1.6 11.3 0.00 0.00 0.00 54 1000.9
20260505233716 13 180 3.2 6.4 0.00 0.00 0.00 52 1000.8
20260505233216 13 178 3.2 9.7 0.00 0.00 0.00 52 1000.8
20260505232716 13 201 1.6 9.7 0.00 0.00 0.00 53 1000.8
20260505232216 13 193 1.6 8.0 0.00 0.00 0.00 54 1000.9
20260505231716 13 184 1.6 6.4 0.00 0.00 0.00 54 1000.9
20260505231216 13 184 1.6 6.4 0.00 0.00 0.00 56 1001.0
20260505230716 13 185 1.6 6.4 0.00 0.00 0.00 56 1001.0
20260505230216 12 186 1.6 4.8 0.00 0.00 0.00 57 1001.0
20260505225716 12 186 1.6 6.4 0.00 0.00 0.00 58 1001.1
20260505225216 12 185 1.6 6.4 0.00 0.00 0.00 61 1001.1
20260505224716 12 186 1.6 6.4 0.00 0.00 0.00 62 1001.2
20260505224216 11 186 1.6 4.8 0.00 0.00 0.00 61 1001.2
20260505223716 11 186 1.6 3.2 0.00 0.00 0.00 61 1001.3
20260505223216 11 186 0.0 4.8 0.00 0.00 0.00 62 1001.5
20260505222716 11 186 0.0 4.8 0.00 0.00 0.00 60 1001.6
20260505222216 11 186 1.6 1.6 0.00 0.00 0.00 61 1001.6
20260505221716 11 165 1.6 8.0 0.00 0.00 0.00 60 1001.6
20260505221216 12 163 1.6 4.8 0.00 0.00 0.00 58 1001.6
20260505220716 12 163 1.6 4.8 0.00 0.00 0.00 56 1001.7
20260505220216 12 163 1.6 3.2 0.00 0.00 0.00 53 1001.7
20260505215716 12 163 1.6 4.8 0.00 0.00 0.00 52 1001.7
20260505215216 12 163 1.6 4.8 0.00 0.00 0.00 53 1001.6
20260505214716 12 163 3.2 6.4 0.00 0.00 0.00 52 1001.7
20260505214216 12 165 3.2 6.4 0.00 0.00 0.00 52 1001.6
20260505213716 12 166 3.2 8.0 0.00 0.00 0.00 53 1001.6
20260505213216 12 165 1.6 8.0 0.00 0.00 0.00 53 1001.6
20260505212717 12 163 3.2 4.8 0.00 0.00 0.00 54 1001.5
20260505212216 12 163 3.2 11.3 0.00 0.00 0.00 53 1001.5
20260505211716 12 175 3.2 4.8 0.00 0.00 0.00 54 1001.5
20260505211217 12 175 3.2 8.0 0.00 0.00 0.00 53 1001.5
20260505210716 12 173 3.2 8.0 0.00 0.00 0.00 54 1001.5
20260505210217 12 174 3.2 8.0 0.00 0.00 0.00 54 1001.5
20260505205717 12 178 3.2 9.7 0.00 0.00 0.00 55 1001.5
20260505205217 12 179 3.2 4.8 0.00 0.00 0.00 55 1001.6
20260505204717 12 179 3.2 6.4 0.00 0.00 0.00 55 1001.6
20260505204217 12 179 3.2 6.4 0.00 0.00 0.00 55 1001.5
20260505203717 12 178 1.6 8.0 0.00 0.00 0.00 55 1001.4
20260505203217 12 179 3.2 6.4 0.00 0.00 0.00 55 1001.5
20260505202717 12 175 3.2 6.4 0.00 0.00 0.00 55 1001.4
20260505202217 11 175 3.2 9.7 0.00 0.00 0.00 55 1001.5
20260505201717 11 177 3.2 8.0 0.00 0.00 0.00 55 1001.4
20260505201217 11 174 3.2 9.7 0.00 0.00 0.00 55 1001.4
20260505200717 11 177 3.2 8.0 0.00 0.00 0.00 55 1001.5
20260505200217 11 175 3.2 8.0 0.00 0.00 0.00 55 1001.4
20260505195717 11 173 3.2 6.4 0.00 0.00 0.00 55 1001.3
20260505195217 11 173 3.2 6.4 0.00 0.00 0.00 58 1001.2
20260505194717 11 173 3.2 11.3 0.00 0.00 0.00 58 1001.3
20260505194217 11 171 3.2 8.0 0.00 0.00 0.00 56 1001.2
20260505193717 11 191 4.8 8.0 0.00 0.00 0.00 56 1001.3
20260505193217 11 184 4.8 9.7 0.00 0.00 0.00 57 1001.3
20260505192743 11 194 4.8 8.0 0.00 0.00 0.00 58 1001.2
20260505192217 11 190 4.8 8.0 0.00 0.00 0.00 57 1001.2
20260505191717 11 203 4.8 8.0 0.00 0.00 0.00 57 1001.1
20260505191217 11 213 4.8 9.7 0.00 0.00 0.00 58 1001.2
20260505190717 11 197 4.8 8.0 0.00 0.00 0.00 59 1001.1
20260505190217 11 170 6.4 11.3 0.00 0.00 0.00 58 1001.2
20260505185717 11 207 6.4 11.3 0.00 0.00 0.00 58 1001.2
20260505185217 11 207 6.4 12.9 0.00 0.00 0.00 59 1001.1
20260505184717 11 184 4.8 14.5 0.00 0.00 0.00 59 1001.2
20260505184217 11 202 6.4 11.3 0.00 0.00 0.00 59 1001.1
20260505183717 11 195 6.4 16.1 0.00 0.00 0.00 60 1001.0
20260505183217 11 180 6.4 14.5 0.00 0.00 0.00 61 1001.0
20260505182717 10 229 6.4 14.5 0.00 0.00 0.00 61 1001.0
20260505182217 10 213 6.4 9.7 0.00 0.00 0.00 62 1000.9
20260505181717 10 179 4.8 14.5 0.00 0.00 0.00 63 1000.8
20260505181217 10 201 4.8 11.3 0.00 0.00 0.00 62 1000.8
20260505180717 10 211 4.8 8.0 0.00 0.00 0.00 63 1001.0
20260505180217 10 209 6.4 11.3 0.00 0.00 0.00 62 1001.1
20260505175717 10 152 4.8 14.5 0.00 0.00 0.00 63 1001.0
20260505175217 10 217 4.8 12.9 0.00 0.00 0.00 62 1001.0
20260505174717 10 193 4.8 8.0 0.00 0.00 0.00 63 1001.0
20260505174217 10 219 4.8 9.7 0.00 0.00 0.00 63 1001.0
20260505173717 10 213 6.4 12.9 0.00 0.00 0.00 63 1000.9
20260505173217 10 201 6.4 11.3 0.00 0.00 0.00 63 1000.9
20260505172717 10 212 6.4 12.9 0.00 0.00 0.00 65 1000.7
20260505172217 10 211 6.4 14.5 0.00 0.00 0.00 67 1000.8
20260505171717 9 225 6.4 12.9 0.00 0.00 0.00 68 1000.7
20260505171217 9 221 6.4 12.9 0.00 0.00 0.00 68 1000.7
20260505170719 9 220 4.8 11.3 0.00 0.00 0.00 68 1000.8
20260505170217 8 213 4.8 11.3 0.00 0.00 0.00 70 1000.7
20260505165717 8 217 4.8 12.9 0.00 0.00 0.00 71 1000.8
20260505165217 8 206 6.4 11.3 0.00 0.00 0.00 72 1000.8
20260505164717 8 193 6.4 11.3 0.00 0.00 0.00 73 1000.7
20260505164217 8 205 4.8 9.7 0.00 0.00 0.00 74 1000.7
20260505163717 8 159 4.8 11.3 0.00 0.00 0.00 74 1000.7
20260505163217 8 182 4.8 9.7 0.00 0.00 0.00 74 1000.8
20260505162717 8 179 4.8 8.0 0.00 0.00 0.00 74 1000.8
20260505162217 8 173 6.4 11.3 0.00 0.00 0.00 73 1000.9
20260505161717 8 177 6.4 11.3 0.00 0.00 0.00 72 1000.9
20260505161217 8 161 6.4 16.1 0.00 0.00 0.00 71 1000.9
20260505160717 8 198 6.4 11.3 0.00 0.00 0.00 70 1000.9
20260505160217 8 163 6.4 11.3 0.00 0.00 0.00 70 1000.9
20260505153308 8 221 6.4 14.5 0.00 0.00 0.00 68 1000.2
20260505152717 8 179 6.4 11.3 0.00 0.00 0.00 67 1000.2
20260505152217 9 185 6.4 14.5 0.00 0.00 0.00 66 1000.2
20260505151717 9 177 4.8 11.3 0.00 0.00 0.00 66 1000.1
20260505151217 9 206 4.8 8.0 0.00 0.00 0.00 66 1000.1
20260505150717 9 209 4.8 11.3 0.00 0.00 0.00 65 1000.0
20260505150217 9 202 3.2 8.0 0.00 0.00 0.00 64 1000.1
20260505140217 10 221 3.2 11.3 0.00 0.00 0.00 59 999.6
20260505130217 11 223 3.2 6.4 0.00 0.00 0.00 58 998.5
20260505124717 11 224 3.2 6.4 0.00 0.00 0.00 55 998.2
20260505124217 11 224 3.2 8.0 0.00 0.00 0.00 57 998.2
20260505123717 11 226 3.2 9.7 0.00 0.00 0.00 59 998.1
20260505123217 11 227 3.2 9.7 0.00 0.00 0.00 62 998.0
20260505122717 11 212 1.6 4.8 0.00 0.00 0.00 63 998.0
20260505122217 11 212 1.6 8.0 0.00 0.00 0.00 64 998.0
20260505121717 11 211 1.6 4.8 0.00 0.00 0.00 66 998.1
20260505121217 11 211 1.6 6.4 0.00 0.00 0.00 66 998.2
20260505120717 11 211 1.6 4.8 0.00 0.00 0.00 65 998.3
20260505120217 11 212 1.6 3.2 0.00 0.00 0.00 63 998.3
20260505115717 11 212 1.6 4.8 0.00 0.00 0.00 63 998.4
20260505115217 11 212 1.6 4.8 0.00 0.00 0.00 62 998.4
20260505114717 11 212 1.6 6.4 0.00 0.00 0.00 60 998.4
20260505114217 11 212 1.6 6.4 0.00 0.00 0.00 60 998.4
20260505113717 11 212 0.0 4.8 0.00 0.00 0.00 59 998.4
20260505113217 11 212 0.0 0.0 0.00 0.00 0.00 58 998.4
20260505112717 11 212 0.0 3.2 0.00 0.00 0.00 57 998.4
20260505112217 11 212 0.0 0.0 0.00 0.00 0.00 58 998.4
20260505111717 11 212 0.0 0.0 0.00 0.00 0.00 58 998.3
20260505111217 11 212 0.0 3.2 0.00 0.00 0.00 58 998.3
20260505110718 11 212 0.0 3.2 0.00 0.00 0.00 58 998.3
20260505110217 11 212 0.0 1.6 0.00 0.00 0.00 58 998.2